| time (UTC) | temp F | wind direction | speed MPH | gust MPH | rain 1hr in | rain 24hr in | rain mn in | humidity % | barometer mb |
| 20260905130048 | 53 | 360 | 0.0 | 0.0 | 0.00 | 0.00 | 0.00 | 45 | 1018.2 |
| 20260905125529 | 53 | 360 | 0.0 | 4.0 | 0.00 | 0.00 | 0.00 | 45 | 1018.1 |
| 20260905125111 | 53 | 360 | 0.0 | 6.0 | 0.00 | 0.00 | 0.00 | 45 | 1018.0 |
| 20260905124551 | 53 | 360 | 5.0 | 6.0 | 0.00 | 0.00 | 0.00 | 44 | 1017.9 |
| 20260905124031 | 54 | 360 | 5.0 | 6.0 | 0.00 | 0.00 | 0.00 | 43 | 1017.7 |
| 20260905123531 | 54 | 360 | 1.0 | 2.0 | 0.00 | 0.00 | 0.00 | 43 | 1017.7 |
| 20260905123033 | 55 | 360 | 0.0 | 0.0 | 0.00 | 0.00 | 0.00 | 42 | 1017.7 |
| 20260905122534 | 55 | 360 | 0.0 | 0.0 | 0.00 | 0.00 | 0.00 | 43 | 1017.6 |
| 20260905122035 | 55 | 360 | 0.0 | 2.0 | 0.00 | 0.00 | 0.00 | 43 | 1017.6 |
| 20260905121536 | 55 | 360 | 0.0 | 3.0 | 0.00 | 0.00 | 0.00 | 43 | 1017.5 |
| 20260905121038 | 55 | 360 | 1.0 | 5.0 | 0.00 | 0.00 | 0.00 | 42 | 1017.5 |
| 20260905120558 | 56 | 360 | 2.0 | 5.0 | 0.00 | 0.00 | 0.00 | 42 | 1017.5 |
| 20260905120040 | 56 | 360 | 3.0 | 5.0 | 0.00 | 0.00 | 0.00 | 41 | 1017.3 |
| 20260905115538 | 56 | 360 | 0.0 | 3.0 | 0.00 | 0.00 | 0.00 | 41 | 1017.2 |
| 20260905115059 | 56 | 360 | 0.0 | 5.0 | 0.00 | 0.00 | 0.00 | 41 | 1017.3 |
| 20260905114620 | 56 | 360 | 3.0 | 5.0 | 0.00 | 0.00 | 0.00 | 41 | 1017.3 |
| 20260905114100 | 56 | 360 | 0.0 | 5.0 | 0.00 | 0.00 | 0.00 | 41 | 1017.2 |
| 20260905113539 | 56 | 360 | 2.0 | 5.0 | 0.00 | 0.00 | 0.00 | 41 | 1017.1 |
| 20260905112559 | 56 | 360 | 0.0 | 7.0 | 0.00 | 0.00 | 0.00 | 41 | 1016.9 |
| 20260905112038 | 56 | 360 | 3.0 | 7.0 | 0.00 | 0.00 | 0.00 | 42 | 1016.8 |
| 20260905111539 | 55 | 360 | 5.0 | 6.0 | 0.00 | 0.00 | 0.00 | 42 | 1016.7 |
| 20260905111102 | 55 | 360 | 3.0 | 4.0 | 0.00 | 0.00 | 0.00 | 41 | 1016.7 |
| 20260905110601 | 56 | 360 | 3.0 | 6.0 | 0.00 | 0.00 | 0.00 | 41 | 1016.6 |
| 20260905105624 | 56 | 360 | 5.0 | 6.0 | 0.00 | 0.00 | 0.00 | 41 | 1016.5 |
| 20260905105125 | 55 | 360 | 2.0 | 3.0 | 0.00 | 0.00 | 0.00 | 41 | 1016.6 |
| 20260905104604 | 55 | 360 | 2.0 | 6.0 | 0.00 | 0.00 | 0.00 | 41 | 1016.5 |
| 20260905104106 | 56 | 360 | 3.0 | 6.0 | 0.00 | 0.00 | 0.00 | 41 | 1016.5 |
| 20260905103605 | 55 | 360 | 6.0 | 6.0 | 0.00 | 0.00 | 0.00 | 41 | 1016.5 |
| 20260905103106 | 56 | 360 | 4.0 | 5.0 | 0.00 | 0.00 | 0.00 | 40 | 1016.4 |
| 20260905102547 | 56 | 360 | 1.0 | 3.0 | 0.00 | 0.00 | 0.00 | 40 | 1016.4 |
| 20260905102047 | 56 | 360 | 0.0 | 3.0 | 0.00 | 0.00 | 0.00 | 41 | 1016.3 |
| 20260905101527 | 56 | 360 | 2.0 | 4.0 | 0.00 | 0.00 | 0.00 | 41 | 1016.3 |
| 20260905101049 | 56 | 360 | 3.0 | 6.0 | 0.00 | 0.00 | 0.00 | 40 | 1016.3 |
| 20260905100528 | 56 | 360 | 0.0 | 6.0 | 0.00 | 0.00 | 0.00 | 41 | 1016.3 |
| 20260905100050 | 56 | 360 | 4.0 | 5.0 | 0.00 | 0.00 | 0.00 | 39 | 1016.1 |
| 20260905095531 | 57 | 360 | 3.0 | 5.0 | 0.00 | 0.00 | 0.00 | 39 | 1016.0 |
| 20260905095036 | 58 | 360 | 0.0 | 0.0 | 0.00 | 0.00 | 0.00 | 38 | 1016.1 |
| 20260905094559 | 59 | 360 | 0.0 | 0.0 | 0.00 | 0.00 | 0.00 | 38 | 1016.0 |
| 20260905094100 | 59 | 360 | 0.0 | 1.0 | 0.00 | 0.00 | 0.00 | 38 | 1015.9 |
| 20260905093539 | 59 | 360 | 0.0 | 7.0 | 0.00 | 0.00 | 0.00 | 38 | 1015.8 |
| 20260905092539 | 58 | 360 | 6.0 | 7.0 | 0.00 | 0.00 | 0.00 | 38 | 1015.8 |
| 20260905092041 | 58 | 360 | 3.0 | 5.0 | 0.00 | 0.00 | 0.00 | 38 | 1015.6 |
| 20260905091603 | 59 | 360 | 2.0 | 5.0 | 0.00 | 0.00 | 0.00 | 37 | 1015.7 |
| 20260905091105 | 59 | 360 | 1.0 | 3.0 | 0.00 | 0.00 | 0.00 | 37 | 1015.8 |
| 20260905090543 | 59 | 360 | 0.0 | 7.0 | 0.00 | 0.00 | 0.00 | 38 | 1015.7 |
| 20260905090044 | 59 | 360 | 2.0 | 7.0 | 0.00 | 0.00 | 0.00 | 37 | 1015.6 |
| 20260905085546 | 60 | 360 | 4.0 | 7.0 | 0.00 | 0.00 | 0.00 | 36 | 1015.5 |
| 20260905085106 | 61 | 360 | 0.0 | 4.0 | 0.00 | 0.00 | 0.00 | 35 | 1015.5 |
| 20260905084627 | 62 | 360 | 1.0 | 4.0 | 0.00 | 0.00 | 0.00 | 34 | 1015.4 |
| 20260905084028 | 63 | 360 | 0.0 | 0.0 | 0.00 | 0.00 | 0.00 | 35 | 1015.4 |
| 20260905083527 | 63 | 360 | 0.0 | 4.0 | 0.00 | 0.00 | 0.00 | 34 | 1015.4 |
| 20260905083028 | 64 | 360 | 1.0 | 4.0 | 0.00 | 0.00 | 0.00 | 34 | 1015.4 |
| 20260905082610 | 65 | 360 | 0.0 | 4.0 | 0.00 | 0.00 | 0.00 | 33 | 1015.3 |
| 20260905082029 | 66 | 360 | 2.0 | 4.0 | 0.00 | 0.00 | 0.00 | 33 | 1015.2 |
| 20260905081530 | 68 | 360 | 0.0 | 4.0 | 0.00 | 0.00 | 0.00 | 31 | 1015.3 |
| 20260905081112 | 68 | 360 | 0.0 | 5.0 | 0.00 | 0.00 | 0.00 | 30 | 1015.1 |
| 20260905080529 | 67 | 360 | 0.0 | 5.0 | 0.00 | 0.00 | 0.00 | 30 | 1015.0 |
| 20260905080051 | 67 | 360 | 0.0 | 1.0 | 0.00 | 0.00 | 0.00 | 31 | 1015.0 |
| 20260905075552 | 66 | 360 | 0.0 | 3.0 | 0.00 | 0.00 | 0.00 | 31 | 1014.9 |
| 20260905075114 | 66 | 360 | 0.0 | 3.0 | 0.00 | 0.00 | 0.00 | 31 | 1014.8 |
| 20260905074534 | 66 | 360 | 0.0 | 7.0 | 0.00 | 0.00 | 0.00 | 32 | 1014.8 |
| 20260905074037 | 65 | 360 | 0.0 | 12.0 | 0.00 | 0.00 | 0.00 | 32 | 1014.7 |
| 20260905073037 | 63 | 360 | 3.0 | 9.0 | 0.00 | 0.00 | 0.00 | 34 | 1014.6 |
| 20260905072559 | 63 | 360 | 0.0 | 0.0 | 0.00 | 0.00 | 0.00 | 35 | 1014.5 |
| 20260905072101 | 63 | 360 | 0.0 | 0.0 | 0.00 | 0.00 | 0.00 | 35 | 1014.3 |
| 20260905071602 | 62 | 360 | 0.0 | 0.0 | 0.00 | 0.00 | 0.00 | 36 | 1014.1 |
| 20260905071104 | 62 | 360 | 0.0 | 1.0 | 0.00 | 0.00 | 0.00 | 34 | 1014.0 |
| 20260905065624 | 63 | 360 | 0.0 | 0.0 | 0.00 | 0.00 | 0.00 | 33 | 1014.0 |
| 20260905065124 | 63 | 360 | 0.0 | 0.0 | 0.00 | 0.00 | 0.00 | 34 | 1014.2 |
| 20260905064542 | 64 | 360 | 0.0 | 0.0 | 0.00 | 0.00 | 0.00 | 34 | 1014.0 |
| 20260905064044 | 64 | 360 | 0.0 | 0.0 | 0.00 | 0.00 | 0.00 | 33 | 1014.0 |
| 20260905063605 | 64 | 360 | 0.0 | 2.0 | 0.00 | 0.00 | 0.00 | 33 | 1013.9 |
| 20260905063024 | 64 | 360 | 0.0 | 2.0 | 0.00 | 0.00 | 0.00 | 33 | 1013.9 |
| 20260905062526 | 64 | 360 | 0.0 | 2.0 | 0.00 | 0.00 | 0.00 | 32 | 1013.8 |
| 20260905062108 | 65 | 360 | 1.0 | 2.0 | 0.00 | 0.00 | 0.00 | 32 | 1013.7 |
| 20260905061548 | 65 | 360 | 0.0 | 0.0 | 0.00 | 0.00 | 0.00 | 32 | 1013.7 |
| 20260905061110 | 65 | 360 | 0.0 | 0.0 | 0.00 | 0.00 | 0.00 | 33 | 1013.7 |
| 20260905060047 | 65 | 360 | 0.0 | 1.0 | 0.00 | 0.00 | 0.00 | 32 | 1013.6 |
| 20260905055547 | 65 | 360 | 0.0 | 3.0 | 0.00 | 0.00 | 0.00 | 32 | 1013.6 |
| 20260905055048 | 65 | 360 | 0.0 | 3.0 | 0.00 | 0.00 | 0.00 | 31 | 1013.5 |
| 20260905054608 | 65 | 360 | 1.0 | 9.0 | 0.00 | 0.00 | 0.00 | 31 | 1013.4 |
| 20260905054049 | 65 | 360 | 5.0 | 9.0 | 0.00 | 0.00 | 0.00 | 30 | 1013.2 |
| 20260905053549 | 65 | 360 | 5.0 | 7.0 | 0.00 | 0.00 | 0.00 | 31 | 1013.2 |
| 20260905053030 | 65 | 360 | 6.0 | 6.0 | 0.00 | 0.00 | 0.00 | 31 | 1013.2 |
| 20260905052531 | 65 | 360 | 0.0 | 4.0 | 0.00 | 0.00 | 0.00 | 30 | 1013.2 |
| 20260905052033 | 66 | 360 | 1.0 | 3.0 | 0.00 | 0.00 | 0.00 | 30 | 1013.2 |
| 20260905051554 | 66 | 360 | 0.0 | 2.0 | 0.00 | 0.00 | 0.00 | 30 | 1013.3 |
| 20260905051034 | 66 | 360 | 0.0 | 2.0 | 0.00 | 0.00 | 0.00 | 30 | 1013.2 |
| 20260905050555 | 65 | 360 | 0.0 | 5.0 | 0.00 | 0.00 | 0.00 | 30 | 1013.2 |
| 20260905050055 | 65 | 360 | 0.0 | 6.0 | 0.00 | 0.00 | 0.00 | 29 | 1013.2 |
| 20260905045616 | 66 | 360 | 5.0 | 6.0 | 0.00 | 0.00 | 0.00 | 30 | 1013.2 |
| 20260905045035 | 66 | 360 | 5.0 | 7.0 | 0.00 | 0.00 | 0.00 | 29 | 1013.2 |
| 20260905044557 | 66 | 360 | 0.0 | 7.0 | 0.00 | 0.00 | 0.00 | 29 | 1013.1 |
| 20260905044059 | 66 | 360 | 3.0 | 5.0 | 0.00 | 0.00 | 0.00 | 29 | 1013.2 |
| 20260905043119 | 66 | 360 | 1.0 | 3.0 | 0.00 | 0.00 | 0.00 | 29 | 1013.3 |
| 20260905042559 | 65 | 360 | 0.0 | 3.0 | 0.00 | 0.00 | 0.00 | 30 | 1013.1 |
| 20260905042041 | 65 | 360 | 0.0 | 3.0 | 0.00 | 0.00 | 0.00 | 29 | 1013.0 |
| 20260905041619 | 65 | 360 | 1.0 | 5.0 | 0.00 | 0.00 | 0.00 | 29 | 1012.9 |
| 20260905041039 | 66 | 360 | 4.0 | 5.0 | 0.00 | 0.00 | 0.00 | 29 | 1012.8 |
| 20260905040538 | 66 | 360 | 2.0 | 4.0 | 0.00 | 0.00 | 0.00 | 29 | 1012.8 |
| 20260905035603 | 66 | 360 | 0.0 | 3.0 | 0.00 | 0.00 | 0.00 | 29 | 1012.8 |
| 20260905034603 | 66 | 360 | 1.0 | 7.0 | 0.00 | 0.00 | 0.00 | 28 | 1012.7 |
| 20260905034044 | 67 | 360 | 5.0 | 7.0 | 0.00 | 0.00 | 0.00 | 28 | 1012.7 |
| 20260905033605 | 67 | 360 | 0.0 | 3.0 | 0.00 | 0.00 | 0.00 | 28 | 1012.7 |
| 20260905033045 | 68 | 360 | 1.0 | 3.0 | 0.00 | 0.00 | 0.00 | 27 | 1012.6 |
| 20260905032525 | 68 | 360 | 2.0 | 3.0 | 0.00 | 0.00 | 0.00 | 28 | 1012.6 |
| 20260905032047 | 68 | 360 | 1.0 | 4.0 | 0.00 | 0.00 | 0.00 | 27 | 1012.5 |
| 20260905031548 | 68 | 360 | 2.0 | 5.0 | 0.00 | 0.00 | 0.00 | 27 | 1012.5 |
| 20260905031111 | 69 | 360 | 1.0 | 5.0 | 0.00 | 0.00 | 0.00 | 26 | 1012.4 |
| 20260905030530 | 70 | 360 | 4.0 | 5.0 | 0.00 | 0.00 | 0.00 | 26 | 1012.4 |
| 20260905030052 | 71 | 360 | 2.0 | 5.0 | 0.00 | 0.00 | 0.00 | 25 | 1012.3 |
| 20260905025531 | 72 | 360 | 3.0 | 5.0 | 0.00 | 0.00 | 0.00 | 25 | 1012.2 |
| 20260905025032 | 74 | 360 | 1.0 | 3.0 | 0.00 | 0.00 | 0.00 | 24 | 1012.2 |
| 20260905024554 | 75 | 360 | 0.0 | 3.0 | 0.00 | 0.00 | 0.00 | 24 | 1012.1 |
| 20260905024035 | 77 | 360 | 0.0 | 5.0 | 0.00 | 0.00 | 0.00 | 24 | 1012.0 |
| 20260905023535 | 77 | 360 | 2.0 | 5.0 | 0.00 | 0.00 | 0.00 | 23 | 1011.9 |
| 20260905023036 | 77 | 360 | 0.0 | 3.0 | 0.00 | 0.00 | 0.00 | 23 | 1012.7 |
| 20260905022541 | 78 | 360 | 0.0 | 0.0 | 0.00 | 0.00 | 0.00 | 23 | 1012.6 |
| 20260905022043 | 79 | 360 | 0.0 | 0.0 | 0.00 | 0.00 | 0.00 | 22 | 1012.5 |
| 20260905021604 | 80 | 360 | 0.0 | 0.0 | 0.00 | 0.00 | 0.00 | 23 | 1012.3 |
| 20260905021044 | 81 | 360 | 0.0 | 0.0 | 0.00 | 0.00 | 0.00 | 21 | 1012.3 |
| 20260905020525 | 82 | 360 | 0.0 | 1.0 | 0.00 | 0.00 | 0.00 | 21 | 1012.2 |
| 20260905020026 | 83 | 360 | 0.0 | 7.0 | 0.00 | 0.00 | 0.00 | 21 | 1012.1 |
| 20260905015548 | 83 | 360 | 0.0 | 11.0 | 0.00 | 0.00 | 0.00 | 20 | 1012.1 |
| 20260905015028 | 84 | 360 | 7.0 | 11.0 | 0.00 | 0.00 | 0.00 | 20 | 1012.0 |
| 20260905014529 | 84 | 360 | 1.0 | 11.0 | 0.00 | 0.00 | 0.00 | 19 | 1012.0 |
| 20260905014050 | 85 | 360 | 4.0 | 11.0 | 0.00 | 0.00 | 0.00 | 19 | 1011.9 |
| 20260905013529 | 86 | 360 | 5.0 | 10.0 | 0.00 | 0.00 | 0.00 | 19 | 1011.9 |
| 20260905013031 | 86 | 360 | 5.0 | 7.0 | 0.00 | 0.00 | 0.00 | 19 | 1011.9 |
| 20260905012553 | 87 | 360 | 1.0 | 5.0 | 0.00 | 0.00 | 0.00 | 19 | 1011.9 |
| 20260905012032 | 87 | 360 | 0.0 | 5.0 | 0.00 | 0.00 | 0.00 | 18 | 1011.8 |
| 20260905011556 | 88 | 360 | 0.0 | 5.0 | 0.00 | 0.00 | 0.00 | 18 | 1011.9 |
| 20260905011057 | 88 | 360 | 0.0 | 7.0 | 0.00 | 0.00 | 0.00 | 18 | 1011.9 |
| 20260905010556 | 88 | 360 | 0.0 | 7.0 | 0.00 | 0.00 | 0.00 | 18 | 1011.9 |
| 20260905010036 | 88 | 360 | 0.0 | 12.0 | 0.00 | 0.00 | 0.00 | 18 | 1011.8 |
| 20260905005618 | 89 | 360 | 0.0 | 12.0 | 0.00 | 0.00 | 0.00 | 18 | 1011.8 |
| 20260905005037 | 89 | 360 | 0.0 | 10.0 | 0.00 | 0.00 | 0.00 | 18 | 1011.0 |
| 20260905004538 | 89 | 360 | 2.0 | 10.0 | 0.00 | 0.00 | 0.00 | 18 | 1010.9 |
| 20260905004045 | 89 | 360 | 0.0 | 10.0 | 0.00 | 0.00 | 0.00 | 18 | 1010.9 |
| 20260905003544 | 89 | 360 | 3.0 | 11.0 | 0.00 | 0.00 | 0.00 | 18 | 1010.9 |
| 20260905003026 | 89 | 360 | 1.0 | 11.0 | 0.00 | 0.00 | 0.00 | 18 | 1011.0 |
| 20260905002528 | 89 | 360 | 0.0 | 12.0 | 0.00 | 0.00 | 0.00 | 18 | 1010.9 |
| 20260905001526 | 90 | 360 | 2.0 | 13.0 | 0.00 | 0.00 | 0.00 | 17 | 1010.9 |
| 20260905001048 | 90 | 360 | 0.0 | 7.0 | 0.00 | 0.00 | 0.00 | 18 | 1010.9 |
| 20260905000527 | 90 | 360 | 1.0 | 12.0 | 0.00 | 0.00 | 0.00 | 17 | 1010.9 |
| 20260905000030 | 90 | 360 | 1.0 | 12.0 | 0.00 | 0.00 | 0.00 | 17 | 1010.9 |
| 20260904235551 | 90 | 360 | 1.0 | 11.0 | 0.00 | 0.00 | 0.00 | 17 | 1011.0 |
| 20260904234531 | 90 | 360 | 2.0 | 13.0 | 0.00 | 0.00 | 0.00 | 17 | 1010.9 |
| 20260904234033 | 90 | 360 | 0.0 | 15.0 | 0.00 | 0.00 | 0.00 | 17 | 1010.8 |
| 20260904233032 | 90 | 360 | 3.0 | 20.0 | 0.00 | 0.00 | 0.00 | 17 | 1010.8 |
| 20260904232616 | 90 | 360 | 3.0 | 20.0 | 0.00 | 0.00 | 0.00 | 17 | 1010.9 |
| 20260904232034 | 90 | 360 | 2.0 | 20.0 | 0.00 | 0.00 | 0.00 | 17 | 1010.8 |
| 20260904231535 | 90 | 360 | 1.0 | 20.0 | 0.00 | 0.00 | 0.00 | 17 | 1010.9 |
| 20260904231057 | 90 | 360 | 7.0 | 16.0 | 0.00 | 0.00 | 0.00 | 17 | 1010.8 |
| 20260904230557 | 91 | 360 | 4.0 | 14.0 | 0.00 | 0.00 | 0.00 | 17 | 1010.8 |
| 20260904230037 | 90 | 360 | 4.0 | 14.0 | 0.00 | 0.00 | 0.00 | 17 | 1010.7 |
| 20260904225539 | 90 | 360 | 2.0 | 20.0 | 0.00 | 0.00 | 0.00 | 17 | 1010.9 |
| 20260904225101 | 90 | 360 | 5.0 | 24.0 | 0.00 | 0.00 | 0.00 | 17 | 1010.8 |
| 20260904224540 | 91 | 360 | 13.0 | 24.0 | 0.00 | 0.00 | 0.00 | 17 | 1010.8 |
| 20260904224042 | 91 | 360 | 0.0 | 17.0 | 0.00 | 0.00 | 0.00 | 17 | 1010.8 |
| 20260904223542 | 91 | 360 | 1.0 | 17.0 | 0.00 | 0.00 | 0.00 | 18 | 1010.7 |
| 20260904223104 | 91 | 360 | 2.0 | 10.0 | 0.00 | 0.00 | 0.00 | 17 | 1010.7 |
| 20260904222525 | 90 | 360 | 0.0 | 12.0 | 0.00 | 0.00 | 0.00 | 18 | 1010.8 |
| 20260904222106 | 91 | 360 | 1.0 | 12.0 | 0.00 | 0.00 | 0.00 | 17 | 1010.8 |
| 20260904221529 | 90 | 360 | 3.0 | 10.0 | 0.00 | 0.00 | 0.00 | 17 | 1010.8 |
| 20260904221051 | 90 | 360 | 2.0 | 9.0 | 0.00 | 0.00 | 0.00 | 17 | 1010.8 |
| 20260904220552 | 90 | 360 | 3.0 | 19.0 | 0.00 | 0.00 | 0.00 | 17 | 1010.9 |
| 20260904220032 | 90 | 360 | 3.0 | 19.0 | 0.00 | 0.00 | 0.00 | 18 | 1010.9 |
| 20260904215554 | 90 | 360 | 3.0 | 13.0 | 0.00 | 0.00 | 0.00 | 18 | 1010.9 |
| 20260904215055 | 89 | 360 | 1.0 | 13.0 | 0.00 | 0.00 | 0.00 | 18 | 1011.0 |
| 20260904214556 | 90 | 360 | 4.0 | 12.0 | 0.00 | 0.00 | 0.00 | 18 | 1011.0 |
| 20260904214118 | 90 | 360 | 2.0 | 16.0 | 0.00 | 0.00 | 0.00 | 18 | 1011.1 |
| 20260904213612 | 90 | 360 | 3.0 | 16.0 | 0.00 | 0.00 | 0.00 | 19 | 1011.1 |
| 20260904213052 | 90 | 360 | 2.0 | 13.0 | 0.00 | 0.00 | 0.00 | 18 | 1011.0 |
| 20260904212613 | 90 | 360 | 4.0 | 13.0 | 0.00 | 0.00 | 0.00 | 18 | 1011.1 |
| 20260904211532 | 90 | 360 | 5.0 | 17.0 | 0.00 | 0.00 | 0.00 | 19 | 1011.3 |
| 20260904211034 | 89 | 360 | 9.0 | 29.0 | 0.00 | 0.00 | 0.00 | 18 | 1011.1 |
| 20260904210615 | 89 | 360 | 15.0 | 29.0 | 0.00 | 0.00 | 0.00 | 18 | 1011.3 |
| 20260904210054 | 89 | 360 | 2.0 | 19.0 | 0.00 | 0.00 | 0.00 | 18 | 1011.3 |
| 20260904205555 | 89 | 360 | 9.0 | 14.0 | 0.00 | 0.00 | 0.00 | 18 | 1011.4 |
| 20260904205055 | 89 | 360 | 5.0 | 20.0 | 0.00 | 0.00 | 0.00 | 19 | 1011.3 |
| 20260904204556 | 89 | 360 | 7.0 | 22.0 | 0.00 | 0.00 | 0.00 | 19 | 1011.3 |
| 20260904204058 | 89 | 360 | 13.0 | 25.0 | 0.00 | 0.00 | 0.00 | 18 | 1011.2 |
| 20260904203537 | 89 | 360 | 5.0 | 28.0 | 0.00 | 0.00 | 0.00 | 18 | 1011.4 |
| 20260904203037 | 88 | 360 | 17.0 | 28.0 | 0.00 | 0.00 | 0.00 | 18 | 1011.4 |
| 20260904202542 | 88 | 360 | 7.0 | 22.0 | 0.00 | 0.00 | 0.00 | 18 | 1011.5 |
| 20260904202043 | 88 | 360 | 11.0 | 22.0 | 0.00 | 0.00 | 0.00 | 18 | 1011.6 |
| 20260904201544 | 87 | 360 | 7.0 | 21.0 | 0.00 | 0.00 | 0.00 | 18 | 1011.7 |
| 20260904201127 | 87 | 360 | 6.0 | 21.0 | 0.00 | 0.00 | 0.00 | 19 | 1011.8 |
| 20260904200545 | 87 | 360 | 12.0 | 33.0 | 0.00 | 0.00 | 0.00 | 18 | 1011.8 |
| 20260904200045 | 87 | 360 | 21.0 | 33.0 | 0.00 | 0.00 | 0.00 | 18 | 1011.8 |
| 20260904195525 | 87 | 360 | 12.0 | 19.0 | 0.00 | 0.00 | 0.00 | 18 | 1011.8 |
| 20260904195108 | 87 | 360 | 13.0 | 19.0 | 0.00 | 0.00 | 0.00 | 18 | 1012.0 |
| 20260904194547 | 87 | 360 | 3.0 | 16.0 | 0.00 | 0.00 | 0.00 | 18 | 1012.0 |
| 20260904194028 | 87 | 360 | 1.0 | 14.0 | 0.00 | 0.00 | 0.00 | 19 | 1012.0 |
| 20260904193548 | 87 | 360 | 5.0 | 16.0 | 0.00 | 0.00 | 0.00 | 18 | 1012.2 |
| 20260904193028 | 86 | 360 | 1.0 | 16.0 | 0.00 | 0.00 | 0.00 | 18 | 1012.2 |
| 20260904192609 | 87 | 360 | 5.0 | 21.0 | 0.00 | 0.00 | 0.00 | 18 | 1012.2 |
| 20260904192030 | 86 | 360 | 4.0 | 24.0 | 0.00 | 0.00 | 0.00 | 19 | 1012.2 |
| 20260904191530 | 86 | 360 | 12.0 | 24.0 | 0.00 | 0.00 | 0.00 | 18 | 1012.3 |
| 20260904191113 | 86 | 360 | 4.0 | 18.0 | 0.00 | 0.00 | 0.00 | 18 | 1012.4 |
| 20260904190612 | 85 | 360 | 9.0 | 16.0 | 0.00 | 0.00 | 0.00 | 19 | 1012.3 |
| 20260904185531 | 85 | 360 | 6.0 | 19.0 | 0.00 | 0.00 | 0.00 | 18 | 1012.5 |
| 20260904185114 | 85 | 360 | 4.0 | 23.0 | 0.00 | 0.00 | 0.00 | 18 | 1012.5 |
| 20260904184613 | 86 | 360 | 3.0 | 27.0 | 0.00 | 0.00 | 0.00 | 19 | 1012.6 |
| 20260904184033 | 86 | 360 | 9.0 | 21.0 | 0.00 | 0.00 | 0.00 | 18 | 1012.7 |
| 20260904183533 | 86 | 360 | 3.0 | 11.0 | 0.00 | 0.00 | 0.00 | 19 | 1012.8 |
| 20260904183116 | 86 | 360 | 2.0 | 15.0 | 0.00 | 0.00 | 0.00 | 19 | 1012.8 |
| 20260904182054 | 86 | 360 | 0.0 | 10.0 | 0.00 | 0.00 | 0.00 | 19 | 1012.9 |
| 20260904181534 | 85 | 360 | 2.0 | 12.0 | 0.00 | 0.00 | 0.00 | 20 | 1012.9 |
| 20260904181036 | 85 | 360 | 1.0 | 12.0 | 0.00 | 0.00 | 0.00 | 19 | 1013.0 |
| 20260904180536 | 85 | 360 | 5.0 | 18.0 | 0.00 | 0.00 | 0.00 | 19 | 1012.9 |
| 20260904180037 | 85 | 360 | 7.0 | 20.0 | 0.00 | 0.00 | 0.00 | 19 | 1013.0 |
| 20260904175558 | 85 | 360 | 7.0 | 20.0 | 0.00 | 0.00 | 0.00 | 18 | 1013.0 |
| 20260904175059 | 84 | 360 | 8.0 | 18.0 | 0.00 | 0.00 | 0.00 | 19 | 1012.9 |
| 20260904174620 | 85 | 360 | 2.0 | 18.0 | 0.00 | 0.00 | 0.00 | 20 | 1013.0 |
| 20260904174039 | 84 | 360 | 4.0 | 17.0 | 0.00 | 0.00 | 0.00 | 22 | 1012.9 |
| 20260904173541 | 84 | 360 | 5.0 | 14.0 | 0.00 | 0.00 | 0.00 | 19 | 1012.9 |
| 20260904173101 | 84 | 360 | 3.0 | 14.0 | 0.00 | 0.00 | 0.00 | 23 | 1012.8 |
| 20260904172541 | 83 | 360 | 6.0 | 14.0 | 0.00 | 0.00 | 0.00 | 23 | 1012.8 |
| 20260904172103 | 82 | 360 | 6.0 | 16.0 | 0.00 | 0.00 | 0.00 | 24 | 1012.8 |
| 20260904171544 | 82 | 360 | 10.0 | 17.0 | 0.00 | 0.00 | 0.00 | 24 | 1012.9 |
| 20260904171046 | 82 | 360 | 8.0 | 17.0 | 0.00 | 0.00 | 0.00 | 24 | 1012.9 |
| 20260904170526 | 82 | 360 | 6.0 | 17.0 | 0.00 | 0.00 | 0.00 | 24 | 1012.8 |
| 20260904170027 | 82 | 360 | 6.0 | 15.0 | 0.00 | 0.00 | 0.00 | 24 | 1012.9 |
| 20260904165532 | 81 | 360 | 10.0 | 16.0 | 0.00 | 0.00 | 0.00 | 24 | 1012.9 |
| 20260904165053 | 81 | 360 | 7.0 | 16.0 | 0.00 | 0.00 | 0.00 | 25 | 1013.0 |
| 20260904164533 | 81 | 360 | 9.0 | 17.0 | 0.00 | 0.00 | 0.00 | 24 | 1012.9 |
| 20260904164034 | 80 | 360 | 6.0 | 20.0 | 0.00 | 0.00 | 0.00 | 25 | 1013.0 |
| 20260904163536 | 80 | 360 | 9.0 | 20.0 | 0.00 | 0.00 | 0.00 | 25 | 1013.0 |
| 20260904163058 | 80 | 360 | 13.0 | 19.0 | 0.00 | 0.00 | 0.00 | 25 | 1012.9 |
| 20260904162036 | 79 | 360 | 8.0 | 16.0 | 0.00 | 0.00 | 0.00 | 26 | 1012.9 |
| 20260904161537 | 79 | 360 | 5.0 | 16.0 | 0.00 | 0.00 | 0.00 | 26 | 1013.0 |
| 20260904161039 | 79 | 360 | 8.0 | 12.0 | 0.00 | 0.00 | 0.00 | 26 | 1013.0 |
| 20260904160538 | 78 | 360 | 4.0 | 18.0 | 0.00 | 0.00 | 0.00 | 27 | 1013.1 |
| 20260904160101 | 78 | 360 | 7.0 | 18.0 | 0.00 | 0.00 | 0.00 | 26 | 1013.1 |
| 20260904155540 | 78 | 360 | 4.0 | 19.0 | 0.00 | 0.00 | 0.00 | 26 | 1013.0 |
| 20260904154620 | 78 | 360 | 5.0 | 14.0 | 0.00 | 0.00 | 0.00 | 26 | 1012.8 |
| 20260904154040 | 79 | 360 | 2.0 | 12.0 | 0.00 | 0.00 | 0.00 | 26 | 1012.8 |
| 20260904153601 | 78 | 360 | 3.0 | 13.0 | 0.00 | 0.00 | 0.00 | 26 | 1012.7 |
| 20260904153042 | 78 | 360 | 5.0 | 16.0 | 0.00 | 0.00 | 0.00 | 26 | 1012.7 |
| 20260904152603 | 78 | 360 | 5.0 | 16.0 | 0.00 | 0.00 | 0.00 | 26 | 1012.7 |
| 20260904152044 | 77 | 360 | 6.0 | 17.0 | 0.00 | 0.00 | 0.00 | 26 | 1012.7 |
| 20260904151605 | 77 | 360 | 6.0 | 17.0 | 0.00 | 0.00 | 0.00 | 26 | 1012.5 |
| 20260904151044 | 77 | 360 | 5.0 | 14.0 | 0.00 | 0.00 | 0.00 | 27 | 1012.7 |
| 20260904150544 | 77 | 360 | 4.0 | 14.0 | 0.00 | 0.00 | 0.00 | 27 | 1012.7 |
| 20260904150046 | 77 | 360 | 7.0 | 14.0 | 0.00 | 0.00 | 0.00 | 26 | 1012.8 |
| 20260904145525 | 77 | 360 | 3.0 | 12.0 | 0.00 | 0.00 | 0.00 | 27 | 1012.8 |
| 20260904145107 | 76 | 360 | 3.0 | 13.0 | 0.00 | 0.00 | 0.00 | 26 | 1012.8 |
| 20260904144607 | 76 | 360 | 1.0 | 13.0 | 0.00 | 0.00 | 0.00 | 28 | 1012.9 |
| 20260904144048 | 76 | 360 | 2.0 | 13.0 | 0.00 | 0.00 | 0.00 | 27 | 1012.8 |
| 20260904143608 | 75 | 360 | 1.0 | 6.0 | 0.00 | 0.00 | 0.00 | 28 | 1012.8 |
| 20260904143028 | 74 | 360 | 0.0 | 3.0 | 0.00 | 0.00 | 0.00 | 28 | 1012.8 |
| 20260904142530 | 73 | 360 | 0.0 | 4.0 | 0.00 | 0.00 | 0.00 | 30 | 1012.8 |
| 20260904142032 | 72 | 360 | 3.0 | 4.0 | 0.00 | 0.00 | 0.00 | 30 | 1012.8 |
| 20260904141614 | 72 | 360 | 0.0 | 5.0 | 0.00 | 0.00 | 0.00 | 31 | 1012.8 |
| 20260904141033 | 71 | 360 | 1.0 | 5.0 | 0.00 | 0.00 | 0.00 | 31 | 1012.0 |
| 20260904140533 | 70 | 360 | 3.0 | 6.0 | 0.00 | 0.00 | 0.00 | 29 | 1012.0 |
| 20260904140034 | 68 | 360 | 2.0 | 6.0 | 0.00 | 0.00 | 0.00 | 35 | 1011.9 |
| 20260904135540 | 67 | 360 | 2.0 | 6.0 | 0.00 | 0.00 | 0.00 | 35 | 1012.0 |
| 20260904135101 | 67 | 360 | 1.0 | 5.0 | 0.00 | 0.00 | 0.00 | 35 | 1011.8 |
| 20260904134618 | 65 | 360 | 2.0 | 5.0 | 0.00 | 0.00 | 0.00 | 35 | 1011.8 |
| 20260904134058 | 64 | 360 | 0.0 | 4.0 | 0.00 | 0.00 | 0.00 | 37 | 1011.8 |
| 20260904133541 | 63 | 360 | 1.0 | 3.0 | 0.00 | 0.00 | 0.00 | 38 | 1011.8 |
| 20260904133119 | 62 | 360 | 0.0 | 4.0 | 0.00 | 0.00 | 0.00 | 39 | 1011.7 |
| 20260904132559 | 61 | 360 | 1.0 | 4.0 | 0.00 | 0.00 | 0.00 | 40 | 1011.7 |
| 20260904132120 | 59 | 360 | 0.0 | 0.0 | 0.00 | 0.00 | 0.00 | 41 | 1011.6 |
| 20260904131600 | 58 | 360 | 0.0 | 0.0 | 0.00 | 0.00 | 0.00 | 40 | 1011.5 |
| 20260904131041 | 58 | 360 | 0.0 | 1.0 | 0.00 | 0.00 | 0.00 | 41 | 1011.4 |
| 20260904130621 | 59 | 360 | 0.0 | 5.0 | 0.00 | 0.00 | 0.00 | 40 | 1011.5 |